FENGYUN 1C DEB, 31513

Orbit data source: Space-Track

FENGYUN 1C DEB, 31513 is space debris in SSO originally from a launch on Mon, 10 May 1999 UTC launched from the Taiyaun Space Center, China (TSC). Fengyun 1C debris stems from the Chinese weather satellite Fengyun-1C, which was intentionally destroyed by a Chinese anti-satellite missile in 2007. This event dramatically increased the amount of space debris, with thousands of trackable fragments posing hazards to satellites and human spaceflight. The Fengyun 1C debris cloud has become a focal point in discussions about space sustainability and the need for international regulations to prevent the creation of new debris.

Loading next visibility...
Identifier
31513, 1999-025BXC
Orbit
SSO
Country
Flag of CNCN / PRC
Related business
Manufacturer
Unknown
Mission
Spacecraft
Bus & Motor
Unknown
Mass
Unknown
Launch date (UTC)
1999-05-10 (27 years ago)
Launch vehicle
Unknown
Launch site
Taiyaun Space Center, China (TSC)
Object type
Payload
Rocket body
Debris
Shape & HBR
Unknown shape, 0.1 m
Radar Cross Section
Small (<0.1 m²)

Expand to show TLE details & history
Last TLE update: 8 hours ago

TLE from 8 hours ago
0 FENGYUN 1C DEB
1 31513U 99025BXC 26237.56461911  .00003833  00000-0  13539-2 0  9991
2 31513  98.8647 345.5110 0029004  99.9011 260.5449 14.35038855765358
Epoch: 2026-08-25T13:33Z
TLE epoch observation values (Epoch: 2026-08-25T13:33:03.091Z)
Latitude
-0.00005°
Longitude
168.41797°
Altitude
781.335 km
Speed
7.461 km/s
True Right ascension
23h 02m 02s
True Declination
0° 00' 00"
Sunlit
Object was in full shadow at epoch
Visualization orbit readout
Latitude
Unknown
Longitude
Unknown
Altitude
Unknown
Speed
Unknown
Apparent Right ascension
Unknown
Apparent Declination
Unknown
Sunlit
N/A
Visualization observer readout
Local Sidereal Time
12:46:32
Azimuth
Unknown
Elevation
Unknown
Doppler factor
Unknown
Orbital elements
Apogee altitude
792.822 km
Perigee altitude
751.345 km
Semi-major axis
7,150.22 km
Eccentricity
0.0029
Inclination
98.8647°
RAAN
345.511°
Arg. of periapsis
99.9011°
True anomaly
260.21725°
Mean anomaly
260.5449°
Eccentric anomaly
260.38106°
Mean motion
3.58975 °/min
Orbital period
100.29 mins
BSTAR
0.0013539
Loading maneuver chart data...
Computing Atmospheric mass density...

Documentation

Showing up to 5 results
|